When you browse on this site, cookies collect data to enhance your experience and personalize the content and advertising you see.
Visit our Privacy Policy to learn more. By continuing to use the site, you agree to this use of cookies and data.
  • In United Kingdom
  • List of Countries
  • For 7 days
  • Water Temperature
  • Weather Map
  • Weather Widgets
  • user-avatar
    Login

    Hourly Weather Batina

    Today, 1 June, Monday

    Time Temperature Precipitation Wind Pressure Humidity
    00:00 +21°C° 0 mm 1 mps 669 mmHg 62%
    01:00 +20°C° 0.2 mm 1 mps 669 mmHg 64%
    02:00 +20°C° 0.2 mm 1 mps 669 mmHg 66%
    03:00 +19°C° 0.2 mm 1 mps 669 mmHg 68%
    04:00 +20°C° 0.5 mm 1 mps 669 mmHg 67%
    05:00 +20°C° 0.5 mm 1 mps 669 mmHg 66%
    06:00 +21°C° 0 mm 1 mps 670 mmHg 64%
    07:00 +23°C° 0.2 mm 1 mps 670 mmHg 59%
    08:00 +24°C° 0.2 mm 2 mps 671 mmHg 55%
    09:00 +25°C° 0.2 mm 2 mps 671 mmHg 50%
    10:00 +26°C° 0 mm 3 mps 671 mmHg 46%
    11:00 +28°C° 0 mm 3 mps 671 mmHg 43%
    12:00 +29°C° 0 mm 3 mps 671 mmHg 40%
    13:00 +29°C° 0 mm 4 mps 671 mmHg 39%
    14:00 +29°C° 0 mm 4 mps 671 mmHg 39%
    15:00 +29°C° 0 mm 5 mps 671 mmHg 38%
    16:00 +27°C° 1.5 mm 4 mps 670 mmHg 47%
    17:00 +25°C° 1.5 mm 4 mps 670 mmHg 55%
    18:00 +24°C° 1.5 mm 3 mps 670 mmHg 64%
    19:00 +22°C° 0.8 mm 3 mps 670 mmHg 63%
    20:00 +21°C° 0.8 mm 2 mps 671 mmHg 63%
    21:00 +21°C° 0.8 mm 1 mps 671 mmHg 62%
    22:00 +21°C° 0 mm 1 mps 671 mmHg 64%
    23:00 +20°C° 0 mm 1 mps 671 mmHg 67%

    Tomorrow, 2 June, Tuesday

    Time Temperature Precipitation Wind Pressure Humidity
    00:00 +20°C° 0 mm 1 mps 670 mmHg 69%
    01:00 +20°C° 0 mm 1 mps 670 mmHg 71%
    02:00 +19°C° 0 mm 1 mps 670 mmHg 73%
    03:00 +17°C° 0 mm 0 mps 670 mmHg 74%
    04:00 +19°C° 0 mm 1 mps 670 mmHg 72%
    05:00 +20°C° 0 mm 1 mps 671 mmHg 69%
    06:00 +21°C° 0 mm 1 mps 671 mmHg 67%
    07:00 +21°C° 0 mm 2 mps 671 mmHg 61%
    08:00 +24°C° 0 mm 2 mps 672 mmHg 55%
    09:00 +25°C° 0 mm 3 mps 673 mmHg 49%
    10:00 +26°C° 0 mm 4 mps 673 mmHg 45%
    11:00 +27°C° 0 mm 4 mps 672 mmHg 40%
    12:00 +28°C° 0 mm 5 mps 672 mmHg 35%
    13:00 +28°C° 0 mm 5 mps 672 mmHg 34%
    14:00 +28°C° 0 mm 5 mps 672 mmHg 33%
    15:00 +28°C° 0 mm 5 mps 671 mmHg 32%
    16:00 +28°C° 0 mm 5 mps 671 mmHg 33%
    17:00 +27°C° 0 mm 5 mps 671 mmHg 34%
    18:00 +26°C° 0 mm 4 mps 670 mmHg 35%
    19:00 +25°C° 0 mm 3 mps 670 mmHg 40%
    20:00 +22°C° 0 mm 3 mps 670 mmHg 46%
    21:00 +21°C° 0 mm 2 mps 670 mmHg 51%
    22:00 +22°C° 0 mm 1 mps 670 mmHg 53%
    23:00 +21°C° 0 mm 1 mps 669 mmHg 55%

    Day after tomorrow, 3 June, Wednesday

    Time Temperature Precipitation Wind Pressure Humidity
    00:00 +21°C° 0 mm 1 mps 669 mmHg 57%
    01:00 +20°C° 0 mm 1 mps 669 mmHg 58%
    02:00 +20°C° 0 mm 1 mps 668 mmHg 58%
    03:00 +20°C° 0 mm 1 mps 668 mmHg 58%
    04:00 +21°C° 0 mm 1 mps 668 mmHg 57%
    05:00 +21°C° 0 mm 1 mps 669 mmHg 55%
    06:00 +22°C° 0 mm 1 mps 669 mmHg 53%
    07:00 +24°C° 0 mm 2 mps 669 mmHg 48%
    08:00 +25°C° 0 mm 3 mps 670 mmHg 43%
    09:00 +27°C° 0 mm 3 mps 671 mmHg 37%
    10:00 +28°C° 0 mm 4 mps 670 mmHg 33%
    11:00 +29°C° 0 mm 4 mps 670 mmHg 29%
    12:00 +30°C° 0 mm 5 mps 670 mmHg 24%
    13:00 +30°C° 0 mm 5 mps 670 mmHg 23%
    14:00 +30°C° 0 mm 5 mps 670 mmHg 23%
    15:00 +30°C° 0 mm 5 mps 669 mmHg 22%
    16:00 +29°C° 0 mm 5 mps 669 mmHg 26%
    17:00 +28°C° 0 mm 5 mps 669 mmHg 31%
    18:00 +28°C° 0 mm 5 mps 668 mmHg 35%
    19:00 +26°C° 0 mm 4 mps 668 mmHg 41%
    20:00 +25°C° 0 mm 3 mps 668 mmHg 47%
    21:00 +24°C° 0 mm 2 mps 668 mmHg 53%
    22:00 +23°C° 0 mm 2 mps 668 mmHg 53%
    23:00 +23°C° 0 mm 2 mps 667 mmHg 53%

    4 June, Thursday

    Time Temperature Precipitation Wind Pressure Humidity
    00:00 +23°C° 0 mm 2 mps 667 mmHg 53%
    01:00 +23°C° 0 mm 2 mps 667 mmHg 53%
    02:00 +21°C° 0 mm 2 mps 666 mmHg 53%
    03:00 +21°C° 0 mm 2 mps 666 mmHg 52%
    04:00 +23°C° 0 mm 2 mps 666 mmHg 50%
    05:00 +24°C° 0 mm 2 mps 667 mmHg 47%
    06:00 +25°C° 0 mm 2 mps 667 mmHg 44%
    07:00 +26°C° 0 mm 3 mps 667 mmHg 40%
    08:00 +28°C° 0 mm 4 mps 668 mmHg 35%
    09:00 +30°C° 0 mm 5 mps 668 mmHg 30%
    10:00 +30°C° 0 mm 6 mps 668 mmHg 28%
    11:00 +32°C° 0 mm 7 mps 668 mmHg 26%
    12:00 +33°C° 0 mm 7 mps 668 mmHg 24%
    13:00 +33°C° 0 mm 7 mps 667 mmHg 23%
    14:00 +33°C° 0 mm 7 mps 667 mmHg 23%
    15:00 +34°C° 0 mm 7 mps 667 mmHg 22%
    16:00 +33°C° 0 mm 6 mps 666 mmHg 24%
    17:00 +32°C° 0 mm 5 mps 666 mmHg 25%
    18:00 +30°C° 0 mm 3 mps 666 mmHg 26%
    19:00 +28°C° 0 mm 3 mps 666 mmHg 33%
    20:00 +25°C° 0 mm 3 mps 666 mmHg 39%
    21:00 +21°C° 0 mm 3 mps 666 mmHg 45%
    22:00 +21°C° 0 mm 3 mps 666 mmHg 47%
    23:00 +20°C° 0 mm 2 mps 666 mmHg 49%

    5 June, Friday

    Time Temperature Precipitation Wind Pressure Humidity
    00:00 +19°C° 0 mm 2 mps 666 mmHg 51%
    01:00 +19°C° 0 mm 2 mps 666 mmHg 52%
    02:00 +18°C° 0 mm 2 mps 666 mmHg 53%
    03:00 +18°C° 0 mm 2 mps 666 mmHg 54%
    04:00 +18°C° 0 mm 2 mps 666 mmHg 54%
    05:00 +18°C° 0 mm 2 mps 666 mmHg 54%
    06:00 +18°C° 0 mm 2 mps 667 mmHg 54%
    07:00 +20°C° 0 mm 4 mps 667 mmHg 49%
    08:00 +21°C° 0 mm 5 mps 668 mmHg 45%
    09:00 +23°C° 0 mm 7 mps 669 mmHg 40%
    10:00 +24°C° 0 mm 7 mps 669 mmHg 36%
    11:00 +26°C° 0 mm 7 mps 669 mmHg 31%
    12:00 +26°C° 0 mm 7 mps 670 mmHg 27%
    13:00 +27°C° 0 mm 7 mps 670 mmHg 27%
    14:00 +27°C° 0 mm 7 mps 670 mmHg 27%
    15:00 +27°C° 0 mm 6 mps 670 mmHg 26%
    16:00 +26°C° 0 mm 6 mps 670 mmHg 29%
    17:00 +26°C° 0 mm 5 mps 670 mmHg 33%
    18:00 +25°C° 0 mm 5 mps 670 mmHg 36%
    19:00 +22°C° 0 mm 4 mps 670 mmHg 40%
    20:00 +21°C° 0 mm 2 mps 670 mmHg 45%
    21:00 +21°C° 0 mm 1 mps 671 mmHg 50%
    22:00 +21°C° 0 mm 1 mps 671 mmHg 52%
    23:00 +20°C° 0 mm 1 mps 670 mmHg 54%

    6 June, Saturday

    Time Temperature Precipitation Wind Pressure Humidity
    00:00 +20°C° 0 mm 1 mps 670 mmHg 56%
    01:00 +19°C° 0 mm 1 mps 670 mmHg 58%
    02:00 +19°C° 0 mm 1 mps 670 mmHg 59%
    03:00 +18°C° 0 mm 1 mps 670 mmHg 61%
    04:00 +19°C° 0 mm 1 mps 671 mmHg 55%
    05:00 +21°C° 0 mm 1 mps 671 mmHg 49%
    06:00 +22°C° 0 mm 1 mps 672 mmHg 43%
    07:00 +23°C° 0 mm 2 mps 672 mmHg 38%
    08:00 +25°C° 0 mm 3 mps 673 mmHg 34%
    09:00 +26°C° 0 mm 4 mps 673 mmHg 29%
    10:00 +27°C° 0 mm 4 mps 673 mmHg 29%
    11:00 +28°C° 0 mm 5 mps 673 mmHg 29%
    12:00 +29°C° 0 mm 6 mps 673 mmHg 28%
    13:00 +29°C° 0 mm 6 mps 673 mmHg 29%
    14:00 +29°C° 0 mm 6 mps 672 mmHg 29%
    15:00 +29°C° 0 mm 6 mps 672 mmHg 29%
    16:00 +29°C° 0 mm 5 mps 672 mmHg 32%
    17:00 +28°C° 0 mm 4 mps 671 mmHg 34%
    18:00 +27°C° 0 mm 4 mps 671 mmHg 36%
    19:00 +26°C° 0 mm 3 mps 671 mmHg 38%
    20:00 +26°C° 0 mm 3 mps 671 mmHg 40%
    21:00 +25°C° 0 mm 2 mps 670 mmHg 42%
    22:00 +25°C° 0 mm 2 mps 670 mmHg 41%
    23:00 +25°C° 0 mm 3 mps 670 mmHg 39%
    Show more